The Chase for Yellow
Powered By Stages

THE CHASE FOR YELLOW CHALLENGE IS OVER. WHILE YOU CAN STILL ENJOY THE ROAD, YOUR RESULTS WON’T BE DISPLAYED ON THE SCOREBOARD

FIND THE CHALLENGE ON OUR REAL ROADS LIST IN THE MOBILE APP

Stages Cycling are giving RGT riders the chance to win three prizes in our Chase The Yellow Challenge*
1 X Stages Dash Cycling Computer
2 X Stages Pulse Heart Rate Monitors

In case you missed it – the end to this year’s biggest grand tour (The Tour De France) made for the single most exciting time trial in modern cycling history.

As the riders arrived in Lure, France, for the penultimate (and what was likely to be the deciding stage), it was thought by most cycling pundits, riders, and even team managers that the Slovenian Primož Roglič would hold on to yellow for just one more day and ride victoriously through the streets of Paris.

The scene was set but, like all great stories, there was a welcome plot twist. This came in the superhuman form of the 22 year old Slovenian, Tadej Pogačar. Tadej Pogačar’s performance on the stage was nothing short of unbelievable. Riding without a power-meter or computer, through a crowd so noisy he could not take the time gaps from the team radio, he took on the final climb and powered to win the stage and the leaders jersey.

We’ve recreated the course using our Magic Road Feature so you can experience the route first hand! If you’re enjoying your own personal battles with friends or foe or simply want to take on the infamous course join our challenge now and see how you compare.

* Entry is automatic when you complete the ride, winners will be selected by random, closing date for entries 23:59:59 BST October 11th 2020, Terms and Conditions Apply

EVENT NEWS

SILVIU MARTIN [RGT CYCLING] OUT OF THE CHASE FOR YELLOW.

After a disappointing performance today (8th October) Martin decided to pull out of the event after leaving his legs at the team hotel. We caught up with Martin after the event and he told us “It was hard from the start. I just cracked, both my legs punctured”.

We all wish him well in his recovery back to fitness. 

STERLING PERFORMANCE PUTS VICKERS [RGT CYCLING] IN THE RGT TOP SPOT

James Vickers of RGT Cycling has topped the RGT leader board after a strong performance today (3rd October).

In a post race interview Vickers said “I am pleased with how today went but have more to come”. He went on to say “I am looking forward to seeing how Bytheway And Martin perform”.

THE STAGES LEADER BOARD

 

Pos Name Age Gender Time Average Power Average WPKG
1 Jan Deca 34 male 01:09:12 393 4.968 W/KG
2 Juan manuel Peñuelas 38 male 01:15:34 320 4.706 W/KG
3 Marc Bardgett 39 male 01:16:07 378 4.727 W/KG
4 Will Stone 17 male 01:16:47 362 4.208 W/KG
5 Kenneth Vansina 32 male 01:16:58 334 4.456 W/KG
6 Rob Stone 49 male 01:17:22 393 4.048 W/KG
7 Raul Lopez 42 male 01:18:56 312 4.269 W/KG
8 Nik Hall 46 male 01:18:59 297 4.309 W/KG
9 Heiko Homrighausen 23 male 01:19:48 272 3.938 W/KG
10 Nic Stevenson 37 male 01:19:59 300 4.113 W/KG
11 Matt Looker (r3r) 31 male 01:20:00 297 4.122 W/KG
12 David Daly 40 male 01:21:37 316 3.899 W/KG
13 Christiaan Riemens 28 male 01:22:17 287 3.878 W/KG
14 Troy Tomkinson 36 male 01:23:20 292 3.702 W/KG
15 George Plataniotis 43 male 01:23:25 233 3.946 W/KG
16 Zan Pirman 20 male 01:23:34 295 3.828 W/KG
17 Daniel Neugebauer  42 male 01:23:45 297 3.762 W/KG
18 Jurgen Van de walle 43 male 01:23:45 277 3.597 W/KG
19 Richard Golding 51 male 01:23:50 278 3.975 W/KG
20 Scott Kerry 43 male 01:23:52 283 3.771 W/KG
21 Francois Iker 41 male 01:24:00 271 3.921 W/KG
22 Mike Lister 34 male 01:24:08 289 3.617 W/KG
23 Alberto Andretta 48 male 01:24:33 273 3.907 W/KG
24 James Vickers [RGT] 38 male 01:24:34 274 3.864 W/KG
25 Bandi Maczko 34 male 01:25:06 277 3.795 W/KG
26 Casey andrew Virtucio 37 male 01:25:28 269 3.837 W/KG
27 Diogo Almeida 43 male 01:25:48 303 3.484 W/KG
28 James Melville 53 male 01:25:48 243 3.683 W/KG
29 Michael Banfield 62 male 01:25:56 290 3.488 W/KG
30 Steven Blewett  42 male 01:25:56 305 3.72 W/KG
31 Alexander Engvall 38 male 01:26:45 251 3.637 W/KG
32 Brandon Nelson 20 male 01:26:55 235 3.975 W/KG
33 Daniel Cadiz 44 male 01:27:07 281 3.649 W/KG
34 Lee Marshall 54 male 01:27:08 219 3.473 W/KG
35 Nick Beale 50 male 01:27:15 235 4.118 W/KG
36 Cristian González 31 male 01:27:26 253 3.619 W/KG
37 Dries Van steeland 27 male 01:27:31 248 3.548 W/KG
38 Poul Jacobsen 54 male 01:27:49 273 3.459 W/KG
39 Andrew Davie 42 male 01:27:52 271 3.663 W/KG
40 Alex Diehl  30 male 01:28:01 255 3.594 W/KG
41 Marko  Knezevic  35 male 01:28:02 321 3.091 W/KG
42 Luka Kar 35 male 01:28:03 275 3.443 W/KG
43 Ian Lazenby 47 male 01:28:05 253 3.51 W/KG
44 Alex Auloy 24 male 01:28:06 244 3.538 W/KG
45 Ryan Ivison 42 male 01:28:21 284 3.297 W/KG
46 Ulrik Egede 49 male 01:28:35 267 3.563 W/KG
47 Andrew  Fraser 53 male 01:28:41 272 3.482 W/KG
48 Kev Fearnshaw 44 male 01:28:44 242 3.671 W/KG
49 Fabian Kaelin 42 male 01:29:01 223 3.85 W/KG
50 Simon Petridis 22 male 01:29:08 234 3.716 W/KG
51 Michal Maj 36 male 01:29:20 216 3.548 W/KG
52 Cruz Alonso 39 male 01:29:26 209 3.543 W/KG
53 Caroline Reuter 45 female 01:29:27 217 3.871 W/KG
54 Dan Corrick 42 male 01:29:28 261 3.384 W/KG
55 Jon Gaarsmand 43 male 01:29:37 278 3.344 W/KG
56 Gal Sekne 25 male 01:29:48 242 3.667 W/KG
57 Carsten  Beckmann  49 male 01:29:57 246 3.373 W/KG
58 Joris Schepers 34 male 01:30:10 240 3.64 W/KG
59 Tony Symons 59 male 01:30:15 245 3.447 W/KG
60 Tony Symons 59 male 01:30:15 250 3.476 W/KG
61 Carlos Sosa 53 male 01:30:16 250 3.472 W/KG
62 Edwin  Van de ven  44 male 01:30:53 216 3.481 W/KG
63 .. Torks 47 male 01:31:04 253 3.37 W/KG
64 Ben Taylor 36 male 01:31:06 242 3.367 W/KG
65 Simon Wu 32 male 01:31:16 225 3.31 W/KG
66 Andrew Calderbank 46 male 01:31:20 254 3.385 W/KG
67 Tyson Villanueva 59 male 01:31:34 243 3.373 W/KG
68 Chris Bankras 24 male 01:31:48 257 3.289 W/KG
69 Guillaume  Martinat 39 male 01:32:06 237 3.437 W/KG
70 John Bytheway [RGT] 57 male 01:32:13 195 3.049 W/KG
71 Thorben Bohling 34 male 01:32:21 268 3.225 W/KG
72 Bill Ginn 58 male 01:32:30 217 3.338 W/KG
73 Harrie Groenewold 49 male 01:32:42 230 3.194 W/KG
74 David Hawkins 39 male 01:32:43 251 3.22 W/KG
75 Tim Za 34 male 01:33:02 284 3.05 W/KG
76 Tim Za 34 male 01:33:02 285 3.067 W/KG
77 David Wiffen 37 male 01:33:04 252 3.146 W/KG
78 Stefan Hoffmann 31 male 01:33:05 267 3.063 W/KG
79 Paul Nicholls wkg 39 male 01:33:13 222 3.172 W/KG
80 Ju Renaud 37 male 01:33:14 250 3.211 W/KG
81 Helmut Singer 45 male 01:33:16 226 3.235 W/KG
82 James Turner 57 male 01:33:17 231 3.213 W/KG
83 James Turner 57 male 01:33:17 234 3.253 W/KG
84 Andy (ibc) Kennedy 55 male 01:33:22 221 3.353 W/KG
85 Jonathan Colledge 41 male 01:33:42 250 3.204 W/KG
86 Nelis De clercq  31 male 01:33:53 216 3.327 W/KG
87 Rene Persoon 34 male 01:33:53 224 3.251 W/KG
88 Rene Persoon 34 male 01:33:53 225 3.26 W/KG
89 Alex Lex 26 male 01:33:54 237 3.118 W/KG
90 Matt Winter 36 male 01:33:56 275 3.271 W/KG
91 Stuart  Campbell 54 male 01:34:00 242 3.223 W/KG
92 Gerrit  Van den brin 50 male 01:34:07 250 3.089 W/KG
93 .. Quick-flash 55 male 01:34:12 210 3.335 W/KG
94 Raul Ochoa 35 male 01:34:28 192 2.738 W/KG
95 Angelo Sonovecchio 85 male 01:34:32 216 3.427 W/KG
96 Alasdair Lacey 57 male 01:34:34 248 3.058 W/KG
97 David  Armitage  47 male 01:34:41 237 3.075 W/KG
98 Mark Jones 58 male 01:34:44 229 3.017 W/KG
99 Mark Gilmour 44 male 01:34:51 226 3.059 W/KG
100 Adrian Mchale 44 male 01:34:58 207 3.561 W/KG
101 Clive Byham 44 male 01:35:00 255 3.075 W/KG
102 .. Kevin.w 46 male 01:35:03 246 3.117 W/KG
103 Andrew Dinnen 44 male 01:35:38 283 2.974 W/KG
104 Kilo Gramm 45 male 01:35:40 236 3.059 W/KG
105 Tim Lee 33 male 01:35:40 220 3.232 W/KG
106 Paulo Almeida 47 male 01:35:43 219 2.954 W/KG
107 Matt Blythe 49 male 01:35:52 223 2.938 W/KG
108 Holly Larsen 48 female 01:36:00 202 3.317 W/KG
109 Carlos Morales 38 male 01:36:02 220 3.231 W/KG
110 Carlos Morales 38 male 01:36:02 220 3.29 W/KG
111 Martin Wal 43 male 01:36:09 242 3.147 W/KG
112 Timo Knerr 30 male 01:36:09 226 3.102 W/KG
113 Patrick Hogan 45 male 01:36:49 254 2.886 W/KG
114 Carlos Fabian 37 male 01:36:55 217 3.147 W/KG
115 Andy Edwards 46 male 01:36:56 216 3.085 W/KG
116 Anton Wouters 48 male 01:37:18 236 2.808 W/KG
117 Martin Fuss 55 male 01:37:21 198 2.789 W/KG
118 Terito Np 45 male 01:37:44 207 3.14 W/KG
119 Alasdair Dunlop 47 male 01:37:54 216 3.322 W/KG
120 Eky Nixon 42 male 01:37:58 222 3.007 W/KG
121 Jan Per 32 male 01:38:02 236 2.951 W/KG
122 Chris Ostrowski 33 male 01:38:02 207 2.96 W/KG
123 Jojo Kok 41 male 01:38:07 223 3.093 W/KG
124 Hakan Kutluca 44 male 01:38:13 178 2.97 W/KG
125 Hakan Kutluca 44 male 01:38:13 186 3.094 W/KG
126 Hakan Kutluca 44 male 01:38:13 189 3.152 W/KG
127 Hakan Kutluca 44 male 01:38:13 183 3.045 W/KG
128 Davy De bont 31 male 01:38:16 214 2.969 W/KG
129 Tom Aerts 30 male 01:38:18 214 2.853 W/KG
130 John Bremner 56 male 01:38:22 211 3.106 W/KG
131 Ben De bondt 49 male 01:38:26 249 2.834 W/KG
132 Edwin Sanchez 52 male 01:38:28 218 3.114 W/KG
133 Paul Ingram 33 male 01:38:32 181 3.02 W/KG
134 Tamás Varga 44 male 01:38:39 227 2.942 W/KG
135 Jun Tomita 40 male 01:38:39 214 3.108 W/KG
136 Voodoo Rattler 56 male 01:38:47 213 2.956 W/KG
137 And C79 41 male 01:38:59 221 2.943 W/KG
138 Harry Bunnell 34 male 01:38:59 212 3.023 W/KG
139 Giovanni Salvucci 47 male 01:39:00 200 3.026 W/KG
140 Mark Slater 46 male 01:39:06 221 3.071 W/KG
141 Rich Blanchard 51 male 01:39:07 203 3.117 W/KG
142 Etienne Savalle 26 male 01:39:07 216 2.877 W/KG
143 Edmund Lewandowski 59 male 01:39:12 209 3.069 W/KG
144 Sara Barman 47 female 01:39:17 182 3.243 W/KG
145 Lewis Stevens 37 male 01:39:21 189 3.096 W/KG
146 Guillaume Toffoli 23 male 01:39:21 197 2.948 W/KG
147 Aquiles Silva 47 male 01:39:23 225 2.994 W/KG
148 Jpm Mess 66 male 01:39:24 226 3.016 W/KG
149 Arif Ali 49 male 01:39:29 226 2.976 W/KG
150 Matic Vrtacnik 39 male 01:39:30 204 2.997 W/KG
151 David Hardy 33 male 01:39:40 214 3.062 W/KG
152 Rzozak Rzozak 40 male 01:39:53 207 3.007 W/KG
153 Lukas Galka [uect] 40 male 01:39:55 208 2.936 W/KG
154 Finn just Christensen 56 male 01:39:58 219 2.925 W/KG
155 Robert Gray 37 male 01:40:06 251 2.856 W/KG
156 Thiago Marra 38 male 01:40:12 186 2.815 W/KG
157 Thiago Marra 38 male 01:40:12 195 2.955 W/KG
158 Fabi Hart 26 male 01:40:23 199 3.021 W/KG
159 Erroll Hatfield 56 male 01:40:39 214 2.71 W/KG
160 Florian Speth 36 male 01:40:41 204 2.837 W/KG
161 James  Tucker 20 male 01:40:43 193 3.02 W/KG
162 Matthew Falk 53 male 01:40:58 188 2.93 W/KG
163 David Richerby 42 male 01:40:59 213 2.955 W/KG
164 Mark t Hickling 46 male 01:41:00 231 3.124 W/KG
165 Chris Tachibana 38 male 01:41:05 175 2.615 W/KG
166 Koos De haan 53 male 01:41:08 230 2.874 W/KG
167 Tim Montgomery  53 male 01:41:09 249 2.867 W/KG
168 Peter Brooke-wavel 52 male 01:41:09 223 2.858 W/KG
169 Rob Olaf 51 male 01:41:11 213 2.766 W/KG
170 Martin  Jones 47 male 01:41:13 216 2.8 W/KG
171 Richard Kershaw 43 male 01:41:15 188 2.935 W/KG
172 Bakir Lacevic 40 male 01:41:20 190 2.882 W/KG
173 Neil Burdett 45 male 01:41:30 199 2.964 W/KG
174 *jason  Gilesy 38 male 01:41:33 248 2.757 W/KG
175 Chris Oconnor 57 male 01:41:38 241 2.676 W/KG
176 David  Knight  43 male 01:41:44 250 2.839 W/KG
177 Bertus Van den burg 59 male 01:41:45 220 2.818 W/KG
178 Mark Towells 32 male 01:41:45 204 3 W/KG
179 William James 42 male 01:41:48 224 2.868 W/KG
180 Guy Lord 37 male 01:41:50 193 2.964 W/KG
181 Antonio Fernández ga 51 male 01:41:53 256 2.667 W/KG
182 Omar Fumagalli 52 male 01:42:00 227 2.835 W/KG
183 Alexandr Bespalov 39 male 01:42:03 182 2.808 W/KG
184 Ruud Holland 42 male 01:42:05 229 2.755 W/KG
185 Jeff  Delie 63 male 01:42:07 177 3.003 W/KG
186 Aled Williams 45 male 01:42:37 191 2.686 W/KG
187 Falk Levien 32 male 01:42:54 199 2.928 W/KG
188 Szilard Krizmanics 39 male 01:42:56 211 2.81 W/KG
189 Marcial 21 51 male 01:42:58 215 2.592 W/KG
190 Stuart White 34 male 01:43:01 182 2.606 W/KG
191 Rok Gajsek 38 male 01:43:05 193 2.883 W/KG
192 Ian Cords 41 male 01:43:13 196 2.841 W/KG
193 Warwick Groves 40 male 01:43:15 199 2.844 W/KG
194 Paul  Meadows 65 male 01:43:20 212 2.786 W/KG
195 Johanna Klar 21 female 01:43:49 158 3.167 W/KG
196 Marino  Aguilera  46 male 01:43:52 203 2.894 W/KG
197 Charles Brenner 40 male 01:44:06 184 2.749 W/KG
198 Tom Green 44 male 01:44:07 209 2.868 W/KG
199 Chris Lukins 59 male 01:44:19 233 2.682 W/KG
200 Ben Verstegen 51 male 01:44:24 222 2.67 W/KG
201 Lars Bilz 48 male 01:44:30 193 2.578 W/KG
202 Teo llacer Llacer 47 male 01:44:34 224 3.295 W/KG
203 Sven Zilly 52 male 01:44:42 228 2.714 W/KG
204 Steve Garzon 41 male 01:44:44 197 2.812 W/KG
205 Emmanuel Emmanuel 53 male 01:44:49 182 2.988 W/KG
206 Tristan Xbc 31 male 01:44:49 197 2.499 W/KG
207 Cantabrana Zuzen advent 43 male 01:45:19 177 2.568 W/KG
208 Dazhen Gu 33 male 01:45:20 171 2.801 W/KG
209 Richard Drinkwater 48 male 01:45:31 186 2.902 W/KG
210 Paul Horridge 34 male 01:45:31 198 2.786 W/KG
211 Yoann Degres 29 male 01:45:32 181 2.746 W/KG
212 Stuart Field 55 male 01:45:42 209 2.584 W/KG
213 Stuart Field 55 male 01:45:42 218 2.693 W/KG
214 Xavier Lamblin 49 male 01:45:43 168 2.808 W/KG
215 Manuel Leal 42 male 01:45:50 199 2.65 W/KG
216 Francois Lebrun 49 male 01:45:59 190 2.965 W/KG
217 Thomas Rambold 40 male 01:46:14 204 2.65 W/KG
218 Bernd Völkering 54 male 01:46:14 197 2.629 W/KG
219 Chris Navin 39 male 01:46:15 211 2.896 W/KG
220 Stefan  Send 59 male 01:46:17 197 2.657 W/KG
221 Peter Guthrie 42 male 01:46:33 215 2.5 W/KG
222 Steve Page 42 male 01:46:51 200 2.67 W/KG
223 Fabian Hö 32 male 01:46:56 208 2.736 W/KG
224 Chris Ashcroft 47 male 01:47:26 220 2.969 W/KG
225 Wolfgang Gay 53 male 01:47:34 176 2.659 W/KG
226 Petr Graubner  35 male 01:47:37 225 2.617 W/KG
227 Daniel Badke 48 male 01:47:45 208 2.664 W/KG
228 Tim.  Muehl 49 male 01:47:45 202 2.558 W/KG
229 Alfred Worry 70 male 01:47:50 182 2.753 W/KG
230 Nick Fell 44 male 01:47:53 214 2.547 W/KG
231 Reiter  Harald  56 male 01:48:00 184 2.457 W/KG
232 Yosuke Watanabe 41 male 01:48:04 172 2.872 W/KG
233 Fabrice Vandermaelen 41 male 01:48:04 191 2.576 W/KG
234 Mel Velasquez 51 male 01:48:11 181 2.832 W/KG
235 Josu Perez 38 male 01:48:13 198 2.539 W/KG
236 Stefan K. 31 male 01:48:23 196 2.727 W/KG
237 Ken Tax 37 male 01:48:24 185 2.638 W/KG
238 Bruno Poussard  54 male 01:48:25 166 2.715 W/KG
239 Ri Ichie 51 male 01:48:44 151 2.093 W/KG
240 Alison Kubota 48 female 01:48:46 168 2.794 W/KG
241 Chris Steiert 59 male 01:48:54 177 2.301 W/KG
242 Kai Berning 33 male 01:48:57 203 2.602 W/KG
243 Michael Krischunas 40 male 01:49:01 226 2.213 W/KG
244 Patrick Optroodt 50 male 01:49:22 213 2.476 W/KG
245 Juan Hoyos 43 male 01:49:24 189 2.514 W/KG
246 Phill  Saddington  51 male 01:49:25 198 2.641 W/KG
247 Justin Menhenett 46 male 01:49:30 158 2.639 W/KG
248 Mikkel just  Christensen  28 male 01:49:38 164 2.444 W/KG
249 Daan van de Wetering 34 male 01:49:42 196 2.385 W/KG
250 Julian Mahecha 42 male 01:49:46 223 2.419 W/KG
251 Arni Kc 44 male 01:49:46 196 2.652 W/KG
252 Joren Van stappen 27 male 01:49:53 223 2.622 W/KG
253 Nick Stokes 55 male 01:49:56 203 2.536 W/KG
254 Will Swarbrick 21 male 01:50:00 186 2.547 W/KG
255 Ekin Alpagut 45 male 01:50:01 211 2.479 W/KG
256 Adrian Gammage 35 male 01:50:01 202 2.523 W/KG
257 Justin Lock 46 male 01:50:02 179 2.551 W/KG
258 Martyn Court 37 male 01:50:08 191 2.36 W/KG
259 Yahya Öksüzoglu 43 male 01:50:29 200 2.505 W/KG
260 Quinton  Dafel 33 male 01:50:34 236 2.481 W/KG
261 Quinton  Dafel 33 male 01:50:34 225 2.371 W/KG
262 Quinton  Dafel 33 male 01:50:34 227 2.393 W/KG
263 Ste Pick 48 male 01:50:37 212 2.496 W/KG
264 Daniel Chan 40 male 01:50:58 183 2.575 W/KG
265 Bogdan Zagan 43 male 01:51:08 194 2.364 W/KG
266 Jonathon Bates 39 male 01:51:18 214 2.38 W/KG
267 Osias Lozano (rob) 34 male 01:51:24 146 2.091 W/KG
268 Mike Byers 57 male 01:51:26 208 2.505 W/KG
269 Stewart Murray 30 male 01:51:27 199 2.43 W/KG
270 Richard Mewett 44 male 01:51:31 180 2.572 W/KG
271 Graham Halsey 53 male 01:51:31 179 2.595 W/KG
272 Bart Hillen 37 male 01:51:45 182 2.42 W/KG
273 Aue Chester 53 female 01:52:04 170 2.62 W/KG
274 Benjamin De schrijver 29 male 01:52:11 166 2.681 W/KG
275 Simon  KatraÅ¡nik 35 male 01:52:14 189 2.659 W/KG
276 Ryszard Jarosz 49 male 01:52:19 184 2.384 W/KG
277 Aleksandar Nikolow 31 male 01:52:19 193 2.443 W/KG
278 Thobias Björk 44 male 01:52:26 203 2.569 W/KG
279 Tom Lehrer 48 male 01:52:31 181 2.441 W/KG
280 Jorge  Roldán  40 male 01:52:43 235 2.239 W/KG
281 Daniel Vargas 32 male 01:52:45 188 2.57 W/KG
282 Gunther Haas 60 male 01:52:53 152 2.237 W/KG
283 Tim Mak 46 male 01:53:07 177 2.495 W/KG
284 Karl Wong 46 male 01:53:19 159 2.441 W/KG
285 Daniel Kostka 19 male 01:53:23 169 2.643 W/KG
286 Attila Maksay 45 male 01:53:28 172 2.565 W/KG
287 //shayne/ /shayne 54 male 01:53:28 204 2.377 W/KG
288 Mat Higgins 43 male 01:53:32 210 2.39 W/KG
289 Horst Fuchs 43 male 01:53:35 184 2.633 W/KG
290 Sarah Morton 47 female 01:53:35 146 2.758 W/KG
291 Gabriel Pastor 31 male 01:53:43 188 2.296 W/KG
292 Jeffrey Ordaz 49 male 01:53:46 136 2.061 W/KG
293 Jeffrey Ordaz 49 male 01:53:46 162 2.461 W/KG
294 Jeffrey Ordaz 49 male 01:53:46 110 1.673 W/KG
295 Jeffrey Ordaz 49 male 01:53:46 165 2.498 W/KG
296 David Brodmann 59 male 01:54:08 191 2.413 W/KG
297 Gifford Chan 41 male 01:54:14 163 2.628 W/KG
298 Rich Rogers 58 male 01:54:18 172 2.452 W/KG
299 Andy Robertson 56 male 01:54:25 194 2.451 W/KG
300 Adrian Cuzman 35 male 01:54:37 175 2.424 W/KG
301 Ali Rana (pcg) 40 male 01:54:37 163 2.331 W/KG
302 Bruno Fabre 57 male 01:54:37 182 2.457 W/KG
303 Marco Gorrea 59 male 01:54:49 206 2.173 W/KG
304 Claude Walter 55 male 01:54:54 181 2.378 W/KG
305 Thijs Pols 42 male 01:55:06 183 2.48 W/KG
306 Thijs Pols 42 male 01:55:06 163 2.204 W/KG
307 Thijs Pols 42 male 01:55:06 174 2.354 W/KG
308 Thijs Pols 42 male 01:55:06 173 2.343 W/KG
309 Thijs Pols 42 male 01:55:06 168 2.271 W/KG
310 Marcelo Machini 51 male 01:55:07 158 2.285 W/KG
311 Emi Ra 45 male 01:55:13 148 2.272 W/KG
312 Thomas Nestler 33 male 01:55:14 157 2.345 W/KG
313 Rachel Deca 33 female 01:55:19 146 2.604 W/KG
314 Krys Powell 39 male 01:55:25 147 1.954 W/KG
315 Maurizio P. 51 male 01:55:26 182 2.492 W/KG
316 Darren  Molloy  55 male 01:55:33 190 2.464 W/KG
317 Pascal Jouve 51 male 01:55:33 179 2.451 W/KG
318 Cor Van erkel 59 male 01:55:38 187 2.401 W/KG
319 Gary Keshishyan 53 male 01:55:44 166 2.272 W/KG
320 Eduardo Torres a 41 male 01:55:50 158 2.465 W/KG
321 Ryan Vinz 35 male 01:55:57 139 2.105 W/KG
322 Fran Bellido  47 male 01:55:58 191 2.242 W/KG
323 Warren Vye 52 male 01:56:00 177 2.328 W/KG
324 Joseph Chang 51 male 01:56:03 190 2.369 W/KG
325 David Shorrocks 53 male 01:56:04 173 2.371 W/KG
326 Ricardo Passos 46 male 01:57:02 156 2.399 W/KG
327 David Broekhuijsen 25 male 01:57:13 199 2.398 W/KG
328 François Chambellant 48 male 01:57:24 200 2.386 W/KG
329 Gene Kwan 40 male 01:57:25 153 2.394 W/KG
330 Rodolfo Fanfani 44 male 01:57:30 205 2.279 W/KG
331 Martin Wilson 49 male 01:57:54 176 2.283 W/KG
332 Matic Ilovar 38 male 01:58:11 196 2.31 W/KG
333 Jo Peter 45 male 01:58:28 171 2.444 W/KG
334 Vasco Nunes 45 male 01:58:29 177 2.332 W/KG
335 Ming Lee 53 male 01:58:39 176 2.412 W/KG
336 Marcos Clavero 29 male 01:58:42 175 2.192 W/KG
337 Ruben  brignoni 49 male 01:58:45 192 2.346 W/KG
338 Robert  Gill 33 male 01:58:47 186 2.328 W/KG
339 Miguel Chado 46 male 01:59:34 207 2.328 W/KG
340 Andrew Groves 39 male 01:59:54 160 2.283 W/KG
341 Matt  Lefort  39 male 02:00:00 166 2.281 W/KG
342 Yuri Pucciotti 42 male 02:00:05 159 2.21 W/KG
343 Elize Niewenhuizen 56 female 02:00:13 160 2.357 W/KG
344 Gary Gough 45 male 02:00:27 199 2.069 W/KG
345 Markus Flaig 46 male 02:00:34 158 2.168 W/KG
346 Michael Roxas 42 male 02:00:54 152 2.307 W/KG
347 Allan Fong 34 male 02:01:51 163 2.358 W/KG
348 Stewart Fairs 54 male 02:02:23 174 2.229 W/KG
349 Gavin Mccoubrey 42 male 02:02:35 192 2.138 W/KG
350 Phil Hone  68 male 02:03:13 135 2.248 W/KG
351 Kaz Tarry 62 female 02:03:30 158 2.291 W/KG
352 Kim Hyun tae 34 male 02:03:31 155 2.098 W/KG
353 Andrew Stillwell 53 male 02:03:42 165 2.263 W/KG
354 Schaukel .. 46 male 02:03:50 177 2.104 W/KG
355 Ro Holkie 35 male 02:04:41 172 2.05 W/KG
356 Adrian Breguet 54 male 02:04:59 176 2.126 W/KG
357 Simon Clark 61 male 02:05:01 148 2.272 W/KG
358 Jeff Mcguinness 41 male 02:05:12 163 2.139 W/KG
359 Andrew Kerr 50 male 02:05:28 169 2.196 W/KG
360 Ross Poole  47 male 02:05:44 158 2.2 W/KG
361 John Twizell 49 male 02:06:24 146 2.151 W/KG
362 Sam Van tienen 28 male 02:06:37 149 2.221 W/KG
363 Gareth Evans 46 male 02:06:54 172 2.075 W/KG
364 Harry Bosch 63 male 02:06:55 153 2.096 W/KG
365 Michael Muljana 44 male 02:06:59 137 2.277 W/KG
366 Nigel Hordern 58 male 02:07:32 189 2.1 W/KG
367 Amy Teasdale 34 female 02:07:41 121 2.093 W/KG
368 Julian Tasker 54 male 02:07:42 167 2.139 W/KG
369 Joni Sunikka 36 male 02:08:02 183 2.177 W/KG
370 Fastérix  Fastérix 50 male 02:08:10 140 2.059 W/KG
371 Patrik  Stenström  48 male 02:08:28 167 2.233 W/KG
372 Ian Vickers 56 male 02:08:29 180 1.938 W/KG
373 Koen Molkens 54 male 02:08:30 146 1.998 W/KG
374 Chris Cefra 48 male 02:08:35 180 2.026 W/KG
375 Dominik Gummel 41 male 02:08:49 143 2.194 W/KG
376 Kenny Neal 45 male 02:09:35 168 2.045 W/KG
377 Cynthia Hadley-grave 54 female 02:09:49 120 2.31 W/KG
378 Joe Thwaites 32 male 02:09:51 142 2.025 W/KG
379 Robert Seaburn 64 male 02:09:52 159 2.043 W/KG
380 Robert Clements 65 male 02:10:28 142 2.121 W/KG
381 Björn  Beus 38 male 02:10:36 160 1.926 W/KG
382 Atta Angelo 44 male 02:10:41 188 1.879 W/KG
383 Matth Mauduit [RGT] 42 female 02:11:43 160 1.862 W/KG
384 Ratvinder Grewal 47 male 02:11:55 149 2.036 W/KG
385 Nancy Yip 43 female 02:12:01 120 2.257 W/KG
386 James Pike 19 male 02:12:32 157 2.043 W/KG
387 Alexandra Badarau 36 female 02:13:59 150 2 W/KG
388 Gregor Jug 36 male 02:14:09 153 1.581 W/KG
389 Bieke Machielsen 36 female 02:14:46 105 2.098 W/KG
390 Jorge  Fontes 41 male 02:15:09 139 1.934 W/KG
391 Gregory Pellegrini 40 male 02:16:22 175 1.901 W/KG
392 Ks Teo 48 male 02:16:39 138 1.819 W/KG
393 Arnaud Bouteiller 57 male 02:17:17 135 1.953 W/KG
394 Paul Weatherston 37 male 02:18:14 154 1.926 W/KG
395 Vasilis Nikolaou 63 male 02:18:20 152 1.895 W/KG
396 Andrew  Liaw 51 male 02:18:36 123 1.99 W/KG
397 Leslie Hoops 46 female 02:19:06 124 1.965 W/KG
398 Marek  Czapla 52 male 02:19:39 128 1.907 W/KG
399 Bart Verbestel 56 male 02:19:41 119 1.798 W/KG
400 Diego Tepsic 48 male 02:20:17 207 2.151 W/KG
401 Jonathan Smith 52 male 02:20:27 143 1.863 W/KG
402 Gianluca  Chiesa 44 male 02:20:42 143 1.79 W/KG
403 Tkr Wd 37 male 02:21:48 165 1.736 W/KG
404 Philip Martin 53 male 02:22:57 139 1.824 W/KG
405 Kristian  Bussmann  43 male 02:23:13 159 1.967 W/KG
406 Tom Van schutte 28 male 02:23:27 177 2.267 W/KG
407 Herman Sutanto 47 male 02:24:58 118 1.851 W/KG
408 Emerson Sahagun 53 male 02:27:54 117 1.673 W/KG
409 Brian Mccarthy 56 male 02:28:12 139 1.806 W/KG
410 Not saga Not 44 male 02:32:37 123 1.709 W/KG
411 Cliff Lau 36 male 02:33:24 140 1.595 W/KG
412 Armin Sczuka 48 male 02:34:52 139 1.617 W/KG
413 Kes Bc 25 male 02:43:43 102 1.614 W/KG
414 Tom Kelly 68 male 02:44:18 112 1.404 W/KG
415 Andrew  Styles 54 male 02:45:13 123 1.448 W/KG
416 Maarten Van esch 35 male 02:46:27 115 1.405 W/KG
417 Evert.j Carstens 57 male 02:46:55 138 1.425 W/KG
418 Yoshiya Iwasaki 47 male 02:48:08 97 1.624 W/KG
419 Jim Smith 54 male 03:25:45 113 1.115 W/KG
420 Charlie Revell ## ## ## ## ##
421 Daniel Cadiz ## ## ## ## ##
422 Caiman Lie ## ## ## ## ##
423 Otto Friberg ## ## ## ## ##
424 Tommy Ware ## ## ## ## ##
425 Scott Hodson ## ## ## ## ##
426 Carlos López ## ## ## ## ##
427 Brandon Nelson ## ## ## ## ##
428 David King ## ## ## ## ##
429 David King ## ## ## ## ##
430 Andrei Orosz ## ## ## ## ##
431 Vincenzo  Jannello  ## ## ## ## ##
432 James Repper ## ## ## ## ##
433 Andres Corredor ## ## ## ## ##
434 Bryan Macdonald ## ## ## ## ##
435 Maarten Delforche ## ## ## ## ##
436 Jacques Levesque ## ## ## ## ##
437 Matthias Rambold ## ## ## ## ##
438 Chris Burgess ## ## ## ## ##
439 John Davidson ## ## ## ## ##
440 George Clark ## ## ## ## ##
441 Paul Walton ## ## ## ## ##
442 Doug Hadlington ## ## ## ## ##
443 Sela Serey ## ## ## ## ##
444 John Martin ## ## ## ## ##
445 Giovanni Pierandrea ## ## ## ## ##
446 Alexandra Badarau ## ## ## ## ##
447 Roy Ss ## ## ## ## ##
448 November Tango ## ## ## ## ##
449 Not saga Not ## ## ## ## ##

If your results are hashed you need to check your age in the Mobile App. If your age is correct, please submit power and weight validation to john@rgtcycling.com for consideration. You will still be eligible for the competition if you do not provide the information we need but you will appear at the bottom of the leader board.